Weather History for Manistee, MI

Change the Weather History Date:

Friday, May 24, 2013

  Actual Average Record
Temperature  
Mean Temperature 40 °F -  
Max Temperature 51 °F 69 °F 85 °F (1989)
Min Temperature 30 °F 48 °F 30 °F (2013)
Degree Days  
Heating Degree Days 24    
Moisture  
Dew Point 32 °F    
Average Humidity 67    
Maximum Humidity 93    
Minimum Humidity 50    
Precipitation  
Precipitation 0.00 in - - ()
Sea Level Pressure  
Sea Level Pressure 30.37 in    
Wind  
Wind Speed 7 mph (NNW)    
Max Wind Speed 16 mph    
Max Gust Speed 23 mph    
Visibility 10 miles    
Events      
Averages and records for this station are not official NWS values.
T = Trace of Precipitation, MM = Missing Value Source: NWS Daily Summary

Daily Weather History Graph

Daily Weather History Graph

Search for Another Location

Airport:

Trip Planner

Search our weather history database for the weather conditions in past years. The results will help you decide how hot, cold, wet, or windy it might be!

Date:

Astronomy

May. 24, 2013 Rise Set
Actual Time 6:09 AM EDT 9:14 PM EDT
Civil Twilight 5:34 AM EDT 9:49 PM EDT
Nautical Twilight 4:49 AM EDT 10:34 PM EDT
Astronomical Twilight 3:56 AM EDT 11:28 PM EDT
Moon 8:55 PM EDT (5/24) 5:43 AM EDT (5/24)
Length of Visible Light 16h 15m
Length of Day
15h 05m
Full, 100% of the Moon is Illuminated
May 24
Full
May 25
Full
May 31
Last Quarter
Jun 8
New
Jun 16
First Quarter

Hourly Weather History & Observations

Time (EDT) Temp. Windchill Dew Point Humidity Pressure Visibility Wind Dir Wind Speed Gust Speed Precip Events Conditions
12:15 AM 41.0 °F 35.8 °F 30.2 °F 65% 30.29 in 10.0 mi NNW 8.1 mph - N/A   Clear
12:35 AM 41.0 °F 36.4 °F 30.2 °F 65% 30.30 in 10.0 mi North 6.9 mph - N/A   Clear
12:55 AM 39.2 °F 33.6 °F 30.2 °F 70% 30.30 in 10.0 mi North 8.1 mph - N/A   Clear
1:15 AM 39.2 °F 34.2 °F 30.2 °F 70% 30.30 in 10.0 mi North 6.9 mph - N/A   Clear
1:35 AM 39.2 °F 33.6 °F 30.2 °F 70% 30.30 in 10.0 mi North 8.1 mph - N/A   Clear
1:55 AM 39.2 °F 33.6 °F 30.2 °F 70% 30.30 in 10.0 mi North 8.1 mph - N/A   Clear
2:15 AM 39.2 °F 34.2 °F 30.2 °F 70% 30.30 in 10.0 mi North 6.9 mph - N/A   Clear
2:35 AM 39.2 °F 35.9 °F 30.2 °F 70% 30.30 in 10.0 mi North 4.6 mph - N/A   Clear
2:55 AM 39.2 °F - 30.2 °F 70% 30.30 in 10.0 mi Calm Calm - N/A   Clear
3:15 AM 37.4 °F 34.9 °F 30.2 °F 75% 30.30 in 10.0 mi North 3.5 mph - N/A   Clear
3:35 AM 37.4 °F 34.9 °F 30.2 °F 75% 30.31 in 10.0 mi North 3.5 mph - N/A   Clear
3:55 AM 37.4 °F 34.9 °F 30.2 °F 75% 30.32 in 10.0 mi North 3.5 mph - N/A   Clear
4:15 AM 37.4 °F 34.9 °F 30.2 °F 75% 30.32 in 10.0 mi North 3.5 mph - N/A   Clear
4:35 AM 33.8 °F 30.8 °F 28.4 °F 81% 30.32 in 10.0 mi WSW 3.5 mph - N/A   Clear
4:55 AM 32.0 °F - 28.4 °F 87% 30.33 in 10.0 mi Calm Calm - N/A   Clear
5:15 AM 32.0 °F - 28.4 °F 87% 30.33 in 10.0 mi Calm Calm - N/A   Clear
5:35 AM 32.0 °F 28.7 °F 28.4 °F 87% 30.34 in 10.0 mi West 3.5 mph - N/A   Clear
5:55 AM 32.0 °F 28.7 °F 28.4 °F 87% 30.34 in 10.0 mi West 3.5 mph - N/A   Clear
6:15 AM 30.2 °F - 28.4 °F 93% 30.35 in 10.0 mi Calm Calm - N/A   Clear
6:35 AM 32.0 °F - 28.4 °F 87% 30.36 in 10.0 mi Calm Calm - N/A   Clear
6:55 AM 32.0 °F 28.7 °F 28.4 °F 87% 30.37 in 10.0 mi West 3.5 mph - N/A   Clear
7:15 AM 35.6 °F 30.7 °F 30.2 °F 81% 30.38 in 10.0 mi North 5.8 mph - N/A   Clear
7:35 AM 39.2 °F 37.0 °F 33.8 °F 81% 30.39 in 10.0 mi North 3.5 mph - N/A   Clear
7:55 AM 39.2 °F 35.0 °F 33.8 °F 81% 30.39 in 10.0 mi NNE 5.8 mph - N/A   Clear
8:15 AM 41.0 °F 37.1 °F 32.0 °F 70% 30.40 in 10.0 mi NNE 5.8 mph - N/A   Clear
8:35 AM 42.8 °F 37.5 °F 32.0 °F 66% 30.41 in 10.0 mi North 9.2 mph - N/A   Clear
8:55 AM 42.8 °F 38.6 °F 30.2 °F 61% 30.41 in 10.0 mi North 6.9 mph - N/A   Scattered Clouds
9:15 AM 42.8 °F 37.5 °F 32.0 °F 66% 30.41 in 10.0 mi North 9.2 mph - N/A   Scattered Clouds
9:35 AM 42.8 °F 38.0 °F 30.2 °F 61% 30.41 in 10.0 mi NE 8.1 mph - N/A   Partly Cloudy
9:55 AM 44.6 °F 40.2 °F 30.2 °F 57% 30.41 in 10.0 mi NNE 8.1 mph - N/A   Partly Cloudy
10:15 AM 44.6 °F 41.4 °F 30.2 °F 57% 30.41 in 10.0 mi North 5.8 mph - N/A   Clear
10:35 AM 44.6 °F 41.4 °F 30.2 °F 57% 30.41 in 10.0 mi North 5.8 mph - N/A   Clear
10:55 AM 46.4 °F 43.5 °F 30.2 °F 53% 30.41 in 10.0 mi North 5.8 mph - N/A   Clear
11:15 AM 46.4 °F 41.1 °F 32.0 °F 57% 30.41 in 10.0 mi NW 11.5 mph - N/A   Clear
11:35 AM 46.4 °F 41.5 °F 33.8 °F 62% 30.42 in 10.0 mi NNW 10.4 mph - N/A   Clear
11:55 AM 46.4 °F 40.1 °F 32.0 °F 57% 30.42 in 10.0 mi NNW 15.0 mph - N/A   Clear
12:15 PM 46.4 °F 40.4 °F 32.0 °F 57% 30.43 in 10.0 mi NNW 13.8 mph 23.0 mph N/A   Clear
12:35 PM 46.4 °F 40.1 °F 32.0 °F 57% 30.43 in 10.0 mi NNW 15.0 mph 21.9 mph N/A   Clear
12:55 PM 44.6 °F 38.1 °F 32.0 °F 61% 30.43 in 10.0 mi NNW 13.8 mph - N/A   Clear
1:15 PM 44.6 °F 37.8 °F 32.0 °F 61% 30.43 in 10.0 mi NNW 15.0 mph 21.9 mph N/A   Clear
1:35 PM 44.6 °F 37.4 °F 32.0 °F 61% 30.43 in 10.0 mi NNW 16.1 mph - N/A   Clear
1:55 PM 44.6 °F 38.4 °F 33.8 °F 66% 30.43 in 10.0 mi NNW 12.7 mph 19.6 mph N/A   Clear
2:15 PM 46.4 °F 41.1 °F 33.8 °F 62% 30.42 in 10.0 mi NNW 11.5 mph 17.3 mph N/A   Clear
2:35 PM 46.4 °F 40.4 °F 32.0 °F 57% 30.41 in 10.0 mi NW 13.8 mph 18.4 mph N/A   Clear
2:55 PM 46.4 °F 40.4 °F 33.8 °F 62% 30.41 in 10.0 mi NW 13.8 mph 18.4 mph N/A   Clear
3:15 PM 48.2 °F - 33.8 °F 58% 30.41 in 10.0 mi NW 12.7 mph - N/A   Clear
3:35 PM 48.2 °F - 33.8 °F 58% 30.41 in 10.0 mi NNW 13.8 mph 18.4 mph N/A   Clear
3:55 PM 48.2 °F - 33.8 °F 58% 30.41 in 10.0 mi NNW 11.5 mph 19.6 mph N/A   Clear
4:15 PM 48.2 °F - 33.8 °F 58% 30.40 in 10.0 mi NW 13.8 mph - N/A   Clear
4:35 PM 48.2 °F - 33.8 °F 58% 30.40 in 10.0 mi NW 12.7 mph - N/A   Clear
4:55 PM 50.0 °F - 33.8 °F 54% 30.39 in 10.0 mi NNW 10.4 mph - N/A   Clear
5:15 PM 50.0 °F - 32.0 °F 50% 30.38 in 10.0 mi NW 10.4 mph - N/A   Clear
5:35 PM 50.0 °F - 32.0 °F 50% 30.38 in 10.0 mi NNW 11.5 mph - N/A   Clear
5:55 PM 48.2 °F - 32.0 °F 54% 30.38 in 10.0 mi NNW 10.4 mph - N/A   Clear
6:15 PM 51.8 °F - 33.8 °F 50% 30.36 in 10.0 mi North 10.4 mph - N/A   Clear
6:35 PM 50.0 °F - 33.8 °F 54% 30.36 in 10.0 mi NW 10.4 mph - N/A   Clear
6:55 PM 51.8 °F - 33.8 °F 50% 30.36 in 10.0 mi NNW 12.7 mph 16.1 mph N/A   Clear
7:15 PM 50.0 °F - 33.8 °F 54% 30.35 in 10.0 mi NNW 9.2 mph - N/A   Clear
7:35 PM 51.8 °F - 33.8 °F 50% 30.34 in 10.0 mi NNW 6.9 mph - N/A   Clear
7:55 PM 51.8 °F - 33.8 °F 50% 30.34 in 10.0 mi NW 5.8 mph - N/A   Clear
8:15 PM 48.2 °F - 33.8 °F 58% 30.34 in 10.0 mi NNW 4.6 mph - N/A   Clear
8:35 PM 48.2 °F - 35.6 °F 62% 30.33 in 10.0 mi NNW 3.5 mph - N/A   Clear
8:55 PM 48.2 °F - 35.6 °F 62% 30.34 in 10.0 mi NNW 3.5 mph - N/A   Clear
9:15 PM 46.4 °F 44.3 °F 35.6 °F 66% 30.34 in 10.0 mi North 4.6 mph - N/A   Clear
9:35 PM 46.4 °F - 35.6 °F 66% 30.35 in 10.0 mi Calm Calm - N/A   Clear
9:55 PM 44.6 °F - 37.4 °F 76% 30.36 in 10.0 mi Calm Calm - N/A   Clear
10:15 PM 44.6 °F - 35.6 °F 71% 30.37 in 10.0 mi Calm Calm - N/A   Clear
10:35 PM 44.6 °F - 35.6 °F 71% 30.36 in 10.0 mi Calm Calm - N/A   Clear
10:55 PM 42.8 °F - 35.6 °F 76% 30.38 in 8.0 mi Calm Calm - N/A   Clear
11:15 PM 39.2 °F - 35.6 °F 87% 30.39 in 10.0 mi Calm Calm - N/A   Clear
11:35 PM 39.2 °F - 35.6 °F 87% 30.39 in 10.0 mi Calm Calm - N/A   Clear
11:55 PM 37.4 °F - 33.8 °F 87% 30.39 in 9.0 mi Calm Calm - N/A   Clear